PRIVATE WETTERSTATION BILLIGHEIM-ALLFELD                       ZURCK
Wetterdaten: Freitag, 28.01.2022
Datum Zeit Temp. A. Temp. A. min Temp. A. max Feuchte A. Luftdruck Regen Wind Richtung Richtung Sonnenschein ET Solar Taupunkt Windchill Windben Empfang
28.01.2022 00:00 0,9 C 0,9 C 0,9 C 92 % 1028,0 hPa 0,0 l/m 12,9 km/h (3 Bft) W 270 0 min 0,000 mm 0 W/m -0,2 C -4,6 C 29,0 km/h (5 Bft) 97 %
28.01.2022 00:10 0,9 C 0,9 C 0,9 C 92 % 1028,0 hPa 0,0 l/m 12,9 km/h (3 Bft) W 270 0 min 0,000 mm 0 W/m -0,2 C -4,6 C 30,6 km/h (5 Bft) 98 %
28.01.2022 00:20 0,9 C 0,9 C 1,0 C 92 % 1028,2 hPa 0,0 l/m 9,7 km/h (2 Bft) W 270 0 min 0,000 mm 0 W/m -0,2 C -2,2 C 30,6 km/h (5 Bft) 98 %
28.01.2022 00:30 0,9 C 0,9 C 1,0 C 92 % 1028,5 hPa 0,0 l/m 8,0 km/h (2 Bft) W 270 0 min 0,000 mm 0 W/m -0,2 C -0,7 C 30,6 km/h (5 Bft) 97 %
28.01.2022 00:40 0,9 C 0,9 C 0,9 C 92 % 1028,7 hPa 0,0 l/m 8,0 km/h (2 Bft) W 270 0 min 0,000 mm 0 W/m -0,2 C -0,7 C 25,7 km/h (4 Bft) 87 %
28.01.2022 00:50 0,9 C 0,9 C 0,9 C 92 % 1028,8 hPa 0,0 l/m 9,7 km/h (2 Bft) W 270 0 min 0,000 mm 0 W/m -0,2 C -2,2 C 25,7 km/h (4 Bft) 98 %
28.01.2022 01:00 0,9 C 0,9 C 0,9 C 92 % 1028,8 hPa 0,0 l/m 9,7 km/h (2 Bft) W 270 0 min 0,000 mm 0 W/m -0,2 C -2,2 C 24,1 km/h (4 Bft) 98 %
28.01.2022 01:10 0,9 C 0,9 C 0,9 C 93 % 1028,9 hPa 0,0 l/m 8,0 km/h (2 Bft) W 270 0 min 0,000 mm 0 W/m -0,1 C -0,7 C 29,0 km/h (5 Bft) 97 %
28.01.2022 01:20 0,9 C 0,9 C 0,9 C 92 % 1029,0 hPa 0,0 l/m 8,0 km/h (2 Bft) W 270 0 min 0,000 mm 0 W/m -0,2 C -0,7 C 27,4 km/h (4 Bft) 98 %
28.01.2022 01:30 1,0 C 0,9 C 1,0 C 92 % 1028,8 hPa 0,0 l/m 11,3 km/h (2 Bft) W 270 0 min 0,000 mm 0 W/m -0,2 C -3,3 C 32,2 km/h (5 Bft) 98 %
28.01.2022 01:40 1,1 C 1,0 C 1,1 C 92 % 1028,8 hPa 0,0 l/m 12,9 km/h (3 Bft) W 270 0 min 0,000 mm 0 W/m -0,1 C -4,3 C 29,0 km/h (5 Bft) 98 %
28.01.2022 01:50 1,2 C 1,1 C 1,2 C 92 % 1028,8 hPa 0,0 l/m 16,1 km/h (3 Bft) W-SW 247 0 min 0,000 mm 0 W/m 0,0 C -6,1 C 32,2 km/h (5 Bft) 97 %
28.01.2022 02:00 1,2 C 1,2 C 1,2 C 92 % 1028,8 hPa 0,0 l/m 12,9 km/h (3 Bft) W 270 0 min 0,000 mm 0 W/m 0,0 C -4,2 C 29,0 km/h (5 Bft) 98 %
28.01.2022 02:10 1,3 C 1,2 C 1,3 C 92 % 1029,0 hPa 0,0 l/m 14,5 km/h (3 Bft) W 270 0 min 0,000 mm 0 W/m 0,1 C -5,1 C 30,6 km/h (5 Bft) 98 %
28.01.2022 02:20 1,3 C 1,2 C 1,3 C 92 % 1029,2 hPa 0,0 l/m 12,9 km/h (3 Bft) W 270 0 min 0,000 mm 0 W/m 0,1 C -4,1 C 29,0 km/h (5 Bft) 97 %
28.01.2022 02:30 1,3 C 1,2 C 1,3 C 92 % 1029,2 hPa 0,0 l/m 14,5 km/h (3 Bft) W 270 0 min 0,000 mm 0 W/m 0,1 C -5,1 C 29,0 km/h (5 Bft) 97 %
28.01.2022 02:40 1,3 C 1,3 C 1,3 C 92 % 1029,3 hPa 0,0 l/m 16,1 km/h (3 Bft) W 270 0 min 0,000 mm 0 W/m 0,1 C -6,0 C 33,8 km/h (5 Bft) 98 %
28.01.2022 02:50 1,3 C 1,3 C 1,3 C 93 % 1029,3 hPa 0,0 l/m 11,3 km/h (2 Bft) W-SW 247 0 min 0,000 mm 0 W/m 0,3 C -3,0 C 32,2 km/h (5 Bft) 98 %
28.01.2022 03:00 1,4 C 1,3 C 1,4 C 93 % 1029,5 hPa 0,0 l/m 11,3 km/h (2 Bft) W 270 0 min 0,000 mm 0 W/m 0,4 C -2,9 C 27,4 km/h (4 Bft) 96 %
28.01.2022 03:10 1,4 C 1,4 C 1,4 C 93 % 1029,6 hPa 0,0 l/m 9,7 km/h (2 Bft) W 270 0 min 0,000 mm 0 W/m 0,4 C -1,7 C 27,4 km/h (4 Bft) 98 %
28.01.2022 03:20 1,4 C 1,4 C 1,4 C 93 % 1029,7 hPa 0,0 l/m 11,3 km/h (2 Bft) W-SW 247 0 min 0,000 mm 0 W/m 0,4 C -2,9 C 32,2 km/h (5 Bft) 97 %
28.01.2022 03:30 1,4 C 1,4 C 1,4 C 93 % 1029,6 hPa 0,0 l/m 6,4 km/h (2 Bft) W 270 0 min 0,000 mm 0 W/m 0,4 C 1,4 C 25,7 km/h (4 Bft) 97 %
28.01.2022 03:40 1,4 C 1,4 C 1,4 C 93 % 1029,8 hPa 0,0 l/m 3,2 km/h (1 Bft) W 270 0 min 0,000 mm 0 W/m 0,4 C 1,4 C 24,1 km/h (4 Bft) 93 %
28.01.2022 03:50 1,5 C 1,4 C 1,5 C 93 % 1030,0 hPa 0,0 l/m 8,0 km/h (2 Bft) W-SW 247 0 min 0,000 mm 0 W/m 0,5 C -0,1 C 30,6 km/h (5 Bft) 91 %
28.01.2022 04:00 1,6 C 1,4 C 1,6 C 93 % 1030,3 hPa 0,0 l/m 9,7 km/h (2 Bft) W 270 0 min 0,000 mm 0 W/m 0,6 C -1,4 C 24,1 km/h (4 Bft) 98 %
28.01.2022 04:10 1,6 C 1,5 C 1,6 C 93 % 1030,3 hPa 0,0 l/m 11,3 km/h (2 Bft) W 270 0 min 0,000 mm 0 W/m 0,6 C -2,7 C 30,6 km/h (5 Bft) 97 %
28.01.2022 04:20 1,4 C 1,4 C 1,6 C 93 % 1030,2 hPa 0,0 l/m 8,0 km/h (2 Bft) W 270 0 min 0,000 mm 0 W/m 0,4 C -0,2 C 25,7 km/h (4 Bft) 98 %
28.01.2022 04:30 1,4 C 1,4 C 1,4 C 93 % 1030,2 hPa 0,0 l/m 6,4 km/h (2 Bft) W-SW 247 0 min 0,000 mm 0 W/m 0,4 C 1,4 C 19,3 km/h (3 Bft) 98 %
28.01.2022 04:40 1,4 C 1,4 C 1,4 C 93 % 1030,4 hPa 0,0 l/m 3,2 km/h (1 Bft) W-SW 247 0 min 0,000 mm 0 W/m 0,4 C 1,4 C 16,1 km/h (3 Bft) 97 %
28.01.2022 04:50 1,4 C 1,4 C 1,4 C 93 % 1030,5 hPa 0,0 l/m 4,8 km/h (1 Bft) W 270 0 min 0,000 mm 0 W/m 0,4 C 1,4 C 19,3 km/h (3 Bft) 98 %
28.01.2022 05:00 1,4 C 1,4 C 1,4 C 93 % 1030,5 hPa 0,0 l/m 6,4 km/h (2 Bft) W-SW 247 0 min 0,000 mm 0 W/m 0,4 C 1,4 C 20,9 km/h (4 Bft) 97 %
28.01.2022 05:10 1,4 C 1,4 C 1,4 C 93 % 1030,5 hPa 0,0 l/m 3,2 km/h (1 Bft) W-SW 247 0 min 0,000 mm 0 W/m 0,4 C 1,4 C 19,3 km/h (3 Bft) 98 %
28.01.2022 05:20 1,5 C 1,4 C 1,5 C 93 % 1030,8 hPa 0,0 l/m 4,8 km/h (1 Bft) W 270 0 min 0,000 mm 0 W/m 0,5 C 1,5 C 16,1 km/h (3 Bft) 98 %
28.01.2022 05:30 1,6 C 1,5 C 1,6 C 93 % 1031,0 hPa 0,0 l/m 8,0 km/h (2 Bft) W-SW 247 0 min 0,000 mm 0 W/m 0,6 C 0,0 C 17,7 km/h (3 Bft) 97 %
28.01.2022 05:40 1,7 C 1,6 C 1,7 C 93 % 1031,1 hPa 0,0 l/m 12,9 km/h (3 Bft) W 270 0 min 0,000 mm 0 W/m 0,7 C -3,6 C 30,6 km/h (5 Bft) 97 %
28.01.2022 05:50 1,7 C 1,6 C 1,7 C 93 % 1031,0 hPa 0,0 l/m 11,3 km/h (2 Bft) W 270 0 min 0,000 mm 0 W/m 0,7 C -2,6 C 32,2 km/h (5 Bft) 98 %
28.01.2022 06:00 1,7 C 1,7 C 1,7 C 93 % 1031,0 hPa 0,0 l/m 11,3 km/h (2 Bft) W 270 0 min 0,000 mm 0 W/m 0,7 C -2,6 C 24,1 km/h (4 Bft) 98 %
28.01.2022 06:10 1,7 C 1,7 C 1,7 C 93 % 1031,1 hPa 0,0 l/m 12,9 km/h (3 Bft) W 270 0 min 0,000 mm 0 W/m 0,7 C -3,6 C 27,4 km/h (4 Bft) 97 %
28.01.2022 06:20 1,7 C 1,7 C 1,7 C 93 % 1031,1 hPa 0,0 l/m 9,7 km/h (2 Bft) W 270 0 min 0,000 mm 0 W/m 0,7 C -1,3 C 27,4 km/h (4 Bft) 98 %
28.01.2022 06:30 1,7 C 1,7 C 1,7 C 93 % 1031,3 hPa 0,0 l/m 11,3 km/h (2 Bft) W 270 0 min 0,000 mm 0 W/m 0,7 C -2,6 C 32,2 km/h (5 Bft) 97 %
28.01.2022 06:40 1,7 C 1,7 C 1,7 C 93 % 1031,4 hPa 0,0 l/m 9,7 km/h (2 Bft) W 270 0 min 0,000 mm 0 W/m 0,7 C -1,3 C 27,4 km/h (4 Bft) 98 %
28.01.2022 06:50 1,7 C 1,7 C 1,7 C 93 % 1031,6 hPa 0,0 l/m 8,0 km/h (2 Bft) W 270 0 min 0,000 mm 0 W/m 0,7 C 0,1 C 22,5 km/h (4 Bft) 98 %
28.01.2022 07:00 1,7 C 1,7 C 1,7 C 93 % 1031,6 hPa 0,0 l/m 9,7 km/h (2 Bft) W 270 0 min 0,000 mm 0 W/m 0,7 C -1,3 C 25,7 km/h (4 Bft) 98 %
28.01.2022 07:10 1,8 C 1,7 C 1,8 C 93 % 1031,8 hPa 0,0 l/m 12,9 km/h (3 Bft) W-SW 247 0 min 0,000 mm 0 W/m 0,8 C -3,5 C 30,6 km/h (5 Bft) 99 %
28.01.2022 07:20 1,8 C 1,7 C 1,8 C 93 % 1032,0 hPa 0,0 l/m 11,3 km/h (2 Bft) W 270 0 min 0,000 mm 0 W/m 0,8 C -2,4 C 27,4 km/h (4 Bft) 98 %
28.01.2022 07:30 1,8 C 1,8 C 1,8 C 93 % 1032,2 hPa 0,0 l/m 11,3 km/h (2 Bft) W 270 0 min 0,000 mm 0 W/m 0,8 C -2,4 C 27,4 km/h (4 Bft) 100 %
28.01.2022 07:40 1,8 C 1,8 C 1,8 C 93 % 1032,3 hPa 0,0 l/m 12,9 km/h (3 Bft) W 270 0 min 0,000 mm 0 W/m 0,8 C -3,5 C 29,0 km/h (5 Bft) 99 %
28.01.2022 07:50 1,8 C 1,8 C 1,8 C 93 % 1032,2 hPa 0,0 l/m 11,3 km/h (2 Bft) W 270 0 min 0,000 mm 0 W/m 0,8 C -2,4 C 33,8 km/h (5 Bft) 100 %
28.01.2022 08:00 1,7 C 1,7 C 1,8 C 93 % 1032,3 hPa 0,0 l/m 14,5 km/h (3 Bft) W 270 0 min 0,000 mm 0 W/m 0,7 C -4,6 C 30,6 km/h (5 Bft) 99 %
28.01.2022 08:10 1,8 C 1,7 C 1,8 C 93 % 1032,5 hPa 0,0 l/m 9,7 km/h (2 Bft) W 270 0 min 0,000 mm 0 W/m 0,8 C -1,2 C 22,5 km/h (4 Bft) 100 %
28.01.2022 08:20 1,8 C 1,8 C 1,8 C 93 % 1032,6 hPa 0,0 l/m 9,7 km/h (2 Bft) W 270 0 min 0,000 mm 0 W/m 0,8 C -1,2 C 19,3 km/h (3 Bft) 100 %
28.01.2022 08:30 1,9 C 1,8 C 1,9 C 93 % 1032,8 hPa 0,0 l/m 8,0 km/h (2 Bft) W 270 0 min 0,000 mm 0 W/m 0,9 C 0,3 C 19,3 km/h (3 Bft) 100 %
28.01.2022 08:40 1,9 C 1,9 C 1,9 C 93 % 1032,8 hPa 0,0 l/m 8,0 km/h (2 Bft) W 270 0 min 0,000 mm 9 W/m 0,9 C 0,3 C 17,7 km/h (3 Bft) 100 %
28.01.2022 08:50 1,9 C 1,9 C 1,9 C 93 % 1032,9 hPa 0,0 l/m 6,4 km/h (2 Bft) W 270 0 min 0,000 mm 16 W/m 0,9 C 1,9 C 22,5 km/h (4 Bft) 99 %
28.01.2022 09:00 1,9 C 1,9 C 1,9 C 93 % 1033,1 hPa 0,0 l/m 9,7 km/h (2 Bft) W-SW 247 0 min 0,000 mm 21 W/m 0,9 C -1,1 C 29,0 km/h (5 Bft) 100 %
28.01.2022 09:10 1,9 C 1,9 C 1,9 C 93 % 1033,3 hPa 0,0 l/m 8,0 km/h (2 Bft) W-SW 247 0 min 0,000 mm 21 W/m 0,9 C 0,3 C 20,9 km/h (4 Bft) 99 %
28.01.2022 09:20 2,0 C 1,9 C 2,0 C 93 % 1033,3 hPa 0,0 l/m 6,4 km/h (2 Bft) W-SW 247 0 min 0,000 mm 39 W/m 1,0 C 2,0 C 17,7 km/h (3 Bft) 99 %
28.01.2022 09:30 2,0 C 1,9 C 2,0 C 93 % 1033,5 hPa 0,0 l/m 6,4 km/h (2 Bft) W-SW 247 0 min 0,000 mm 46 W/m 1,0 C 2,0 C 17,7 km/h (3 Bft) 100 %
28.01.2022 09:40 2,1 C 2,0 C 2,1 C 93 % 1033,5 hPa 0,0 l/m 3,2 km/h (1 Bft) W 270 0 min 0,000 mm 49 W/m 1,1 C 2,1 C 17,7 km/h (3 Bft) 100 %
28.01.2022 09:50 2,2 C 2,1 C 2,2 C 93 % 1033,6 hPa 0,0 l/m 4,8 km/h (1 Bft) W-SW 247 0 min 0,000 mm 53 W/m 1,2 C 2,2 C 16,1 km/h (3 Bft) 100 %
28.01.2022 10:00 2,3 C 2,2 C 2,3 C 93 % 1033,7 hPa 0,0 l/m 6,4 km/h (2 Bft) W-SW 247 0 min 0,025 mm 84 W/m 1,3 C 2,3 C 17,7 km/h (3 Bft) 99 %
28.01.2022 10:10 2,5 C 2,3 C 2,5 C 93 % 1033,7 hPa 0,0 l/m 9,7 km/h (2 Bft) W-SW 247 10 min 0,000 mm 214 W/m 1,5 C -0,5 C 27,4 km/h (4 Bft) 100 %
28.01.2022 10:20 2,6 C 2,5 C 2,6 C 92 % 1034,1 hPa 0,0 l/m 12,9 km/h (3 Bft) W-SW 247 0 min 0,000 mm 104 W/m 1,4 C -2,6 C 32,2 km/h (5 Bft) 100 %
28.01.2022 10:30 2,6 C 2,6 C 2,6 C 92 % 1034,0 hPa 0,0 l/m 11,3 km/h (2 Bft) W-SW 247 0 min 0,000 mm 125 W/m 1,4 C -1,5 C 29,0 km/h (5 Bft) 100 %
28.01.2022 10:40 2,6 C 2,6 C 2,6 C 92 % 1034,1 hPa 0,0 l/m 11,3 km/h (2 Bft) W 270 0 min 0,000 mm 135 W/m 1,4 C -1,5 C 27,4 km/h (4 Bft) 100 %
28.01.2022 10:50 2,8 C 2,6 C 2,8 C 93 % 1034,4 hPa 0,0 l/m 8,0 km/h (2 Bft) W 270 10 min 0,000 mm 199 W/m 1,8 C 1,3 C 29,0 km/h (5 Bft) 99 %
28.01.2022 11:00 2,9 C 2,8 C 2,9 C 92 % 1034,3 hPa 0,1 l/m 3,2 km/h (1 Bft) W-NW 292 0 min 0,051 mm 76 W/m 1,7 C 2,9 C 12,9 km/h (3 Bft) 100 %
28.01.2022 11:10 2,9 C 2,8 C 2,9 C 92 % 1034,4 hPa 0,0 l/m 8,0 km/h (2 Bft) W 270 0 min 0,000 mm 148 W/m 1,7 C 1,4 C 17,7 km/h (3 Bft) 100 %
28.01.2022 11:20 3,1 C 2,9 C 3,1 C 92 % 1034,2 hPa 0,0 l/m 8,0 km/h (2 Bft) W-SW 247 10 min 0,000 mm 230 W/m 1,9 C 1,6 C 19,3 km/h (3 Bft) 100 %
28.01.2022 11:30 3,1 C 3,1 C 3,1 C 92 % 1034,2 hPa 0,1 l/m 6,4 km/h (2 Bft) W 270 0 min 0,000 mm 113 W/m 1,9 C 3,1 C 19,3 km/h (3 Bft) 100 %
28.01.2022 11:40 3,2 C 3,1 C 3,2 C 92 % 1034,1 hPa 0,0 l/m 4,8 km/h (1 Bft) W 270 0 min 0,000 mm 149 W/m 2,0 C 3,2 C 24,1 km/h (4 Bft) 100 %
28.01.2022 11:50 3,4 C 3,2 C 3,4 C 92 % 1034,1 hPa 0,0 l/m 9,7 km/h (2 Bft) W 270 10 min 0,000 mm 315 W/m 2,2 C 0,5 C 22,5 km/h (4 Bft) 99 %
28.01.2022 12:00 3,6 C 3,4 C 3,6 C 92 % 1034,1 hPa 0,0 l/m 11,3 km/h (2 Bft) W 270 10 min 0,051 mm 258 W/m 2,4 C -0,4 C 25,7 km/h (4 Bft) 100 %
28.01.2022 12:10 3,6 C 3,6 C 3,6 C 91 % 1034,2 hPa 0,0 l/m 12,9 km/h (3 Bft) W 270 10 min 0,000 mm 237 W/m 2,3 C -1,4 C 27,4 km/h (4 Bft) 100 %
28.01.2022 12:39 3,6 C 3,6 C 3,7 C 91 % 1034,1 hPa 0,0 l/m 6,9 km/h (2 Bft) W 269 29 min 0,000 mm 174 W/m 2,3 C 3,1 C 19,3 km/h (3 Bft) 98 %
28.01.2022 12:40 3,6 C 3,6 C 3,6 C 91 % 1034,0 hPa 0,0 l/m 1,1 km/h (1 Bft) W 267 1 min 0,000 mm 185 W/m 2,3 C 3,6 C 6,4 km/h (2 Bft) 96 %
28.01.2022 12:50 3,7 C 3,6 C 3,7 C 91 % 1034,1 hPa 0,0 l/m 6,3 km/h (2 Bft) W-NW 296 0 min 0,000 mm 146 W/m 2,4 C 3,7 C 20,9 km/h (4 Bft) 97 %
28.01.2022 13:00 3,9 C 3,7 C 3,9 C 91 % 1034,1 hPa 0,0 l/m 7,5 km/h (2 Bft) W 263 10 min 0,051 mm 188 W/m 2,6 C 2,9 C 20,9 km/h (4 Bft) 98 %
28.01.2022 13:10 4,1 C 3,9 C 4,1 C 90 % 1034,0 hPa 0,0 l/m 9,0 km/h (2 Bft) W-SW 256 0 min 0,000 mm 144 W/m 2,6 C 1,8 C 22,5 km/h (4 Bft) 97 %
28.01.2022 13:20 4,4 C 4,1 C 4,4 C 89 % 1033,7 hPa 0,0 l/m 6,5 km/h (2 Bft) W-SW 252 10 min 0,000 mm 206 W/m 2,7 C 4,3 C 16,1 km/h (3 Bft) 98 %
28.01.2022 13:30 4,7 C 4,4 C 4,7 C 87 % 1033,8 hPa 0,0 l/m 7,9 km/h (2 Bft) W-SW 240 0 min 0,000 mm 111 W/m 2,7 C 3,4 C 16,1 km/h (3 Bft) 97 %
28.01.2022 13:40 4,6 C 4,6 C 4,7 C 86 % 1033,8 hPa 0,0 l/m 8,0 km/h (2 Bft) W 259 0 min 0,000 mm 127 W/m 2,5 C 3,2 C 22,5 km/h (4 Bft) 98 %
28.01.2022 13:50 4,8 C 4,6 C 4,8 C 87 % 1033,7 hPa 0,0 l/m 7,8 km/h (2 Bft) W-SW 242 10 min 0,000 mm 197 W/m 2,8 C 3,6 C 19,3 km/h (3 Bft) 89 %
28.01.2022 14:00 4,9 C 4,8 C 4,9 C 85 % 1033,6 hPa 0,0 l/m 8,4 km/h (2 Bft) SW 234 0 min 0,076 mm 53 W/m 2,6 C 3,2 C 22,5 km/h (4 Bft) 97 %
28.01.2022 14:10 4,8 C 4,8 C 4,9 C 86 % 1033,5 hPa 0,0 l/m 9,5 km/h (2 Bft) W 281 0 min 0,000 mm 109 W/m 2,7 C 2,2 C 20,9 km/h (4 Bft) 98 %
28.01.2022 14:20 4,8 C 4,8 C 4,8 C 85 % 1033,4 hPa 0,0 l/m 12,0 km/h (2 Bft) W-SW 258 10 min 0,000 mm 325 W/m 2,5 C 0,5 C 29,0 km/h (5 Bft) 96 %
28.01.2022 14:30 5,1 C 4,8 C 5,1 C 84 % 1033,5 hPa 0,0 l/m 6,2 km/h (2 Bft) W 265 10 min 0,000 mm 302 W/m 2,6 C 5,1 C 20,9 km/h (4 Bft) 97 %
28.01.2022 14:40 5,4 C 5,1 C 5,4 C 83 % 1033,6 hPa 0,0 l/m 4,9 km/h (1 Bft) W-NW 290 10 min 0,000 mm 213 W/m 2,7 C 5,4 C 20,9 km/h (4 Bft) 97 %
28.01.2022 14:50 5,4 C 5,4 C 5,5 C 82 % 1033,6 hPa 0,0 l/m 5,9 km/h (2 Bft) W-NW 291 0 min 0,000 mm 83 W/m 2,6 C 5,4 C 17,7 km/h (3 Bft) 98 %
28.01.2022 15:00 5,3 C 5,2 C 5,4 C 83 % 1033,7 hPa 0,0 l/m 6,2 km/h (2 Bft) W 269 0 min 0,076 mm 149 W/m 2,7 C 5,3 C 16,1 km/h (3 Bft) 98 %
28.01.2022 15:10 5,3 C 5,3 C 5,4 C 82 % 1033,6 hPa 0,0 l/m 6,1 km/h (2 Bft) W 259 0 min 0,000 mm 76 W/m 2,5 C 5,3 C 16,1 km/h (3 Bft) 97 %
28.01.2022 15:20 5,1 C 5,1 C 5,3 C 83 % 1033,7 hPa 0,0 l/m 5,4 km/h (1 Bft) W-SW 257 0 min 0,000 mm 104 W/m 2,5 C 5,1 C 14,5 km/h (3 Bft) 98 %
28.01.2022 15:30 5,0 C 5,0 C 5,1 C 83 % 1033,6 hPa 0,0 l/m 4,7 km/h (1 Bft) W 270 0 min 0,000 mm 70 W/m 2,4 C 5,0 C 16,1 km/h (3 Bft) 97 %
28.01.2022 15:40 5,0 C 5,0 C 5,0 C 83 % 1033,5 hPa 0,0 l/m 2,2 km/h (1 Bft) W 277 0 min 0,000 mm 49 W/m 2,4 C 5,0 C 9,7 km/h (2 Bft) 97 %
28.01.2022 15:50 5,0 C 5,0 C 5,0 C 83 % 1033,5 hPa 0,0 l/m 4,8 km/h (1 Bft) W 261 0 min 0,000 mm 72 W/m 2,4 C 5,0 C 14,5 km/h (3 Bft) 97 %
28.01.2022 16:00 5,1 C 5,0 C 5,1 C 82 % 1033,6 hPa 0,0 l/m 6,1 km/h (2 Bft) W-SW 246 0 min 0,051 mm 69 W/m 2,3 C 5,1 C 17,7 km/h (3 Bft) 98 %
28.01.2022 16:10 5,0 C 5,0 C 5,1 C 82 % 1033,5 hPa 0,0 l/m 4,4 km/h (1 Bft) W 266 0 min 0,000 mm 51 W/m 2,2 C 5,0 C 16,1 km/h (3 Bft) 97 %
28.01.2022 16:20 4,8 C 4,8 C 5,0 C 83 % 1033,6 hPa 0,0 l/m 3,5 km/h (1 Bft) W 267 0 min 0,000 mm 42 W/m 2,2 C 4,8 C 14,5 km/h (3 Bft) 97 %
28.01.2022 16:30 4,6 C 4,6 C 4,8 C 83 % 1033,6 hPa 0,0 l/m 2,1 km/h (1 Bft) W-SW 253 0 min 0,000 mm 32 W/m 2,0 C 4,6 C 11,3 km/h (2 Bft) 98 %
28.01.2022 16:40 4,5 C 4,4 C 4,6 C 84 % 1033,5 hPa 0,0 l/m 4,1 km/h (1 Bft) W-SW 255 0 min 0,000 mm 35 W/m 2,0 C 4,5 C 17,7 km/h (3 Bft) 97 %
28.01.2022 16:50 4,4 C 4,4 C 4,5 C 85 % 1033,7 hPa 0,0 l/m 4,5 km/h (1 Bft) W-SW 245 0 min 0,000 mm 19 W/m 2,1 C 4,4 C 11,3 km/h (2 Bft) 98 %
28.01.2022 17:00 4,3 C 4,3 C 4,4 C 85 % 1033,7 hPa 0,0 l/m 3,3 km/h (1 Bft) W-SW 242 0 min 0,025 mm 16 W/m 2,0 C 4,3 C 11,3 km/h (2 Bft) 97 %
28.01.2022 17:10 4,2 C 4,2 C 4,3 C 85 % 1034,0 hPa 0,0 l/m 4,1 km/h (1 Bft) W-SW 238 0 min 0,000 mm 7 W/m 1,9 C 4,2 C 11,3 km/h (2 Bft) 98 %
28.01.2022 17:20 4,1 C 4,1 C 4,2 C 86 % 1034,0 hPa 0,0 l/m 7,7 km/h (2 Bft) SW 221 0 min 0,000 mm 7 W/m 2,0 C 2,9 C 25,7 km/h (4 Bft) 98 %
28.01.2022 17:30 3,9 C 3,9 C 4,1 C 86 % 1034,1 hPa 0,0 l/m 5,3 km/h (1 Bft) W 259 0 min 0,000 mm 0 W/m 1,8 C 3,9 C 14,5 km/h (3 Bft) 97 %
28.01.2022 17:40 3,8 C 3,8 C 3,9 C 86 % 1034,2 hPa 0,0 l/m 5,0 km/h (1 Bft) W-SW 254 0 min 0,000 mm 0 W/m 1,7 C 3,8 C 14,5 km/h (3 Bft) 98 %
28.01.2022 17:50 3,8 C 3,7 C 3,8 C 87 % 1034,2 hPa 0,0 l/m 7,1 km/h (2 Bft) W 259 0 min 0,000 mm 0 W/m 1,8 C 3,2 C 17,7 km/h (3 Bft) 97 %
28.01.2022 18:00 3,7 C 3,7 C 3,8 C 87 % 1034,3 hPa 0,0 l/m 4,7 km/h (1 Bft) W 261 0 min 0,000 mm 0 W/m 1,7 C 3,7 C 16,1 km/h (3 Bft) 89 %
28.01.2022 18:10 3,7 C 3,7 C 3,7 C 87 % 1034,3 hPa 0,0 l/m 6,6 km/h (2 Bft) W-SW 250 0 min 0,000 mm 0 W/m 1,7 C 3,5 C 19,3 km/h (3 Bft) 97 %
28.01.2022 18:20 3,6 C 3,6 C 3,7 C 87 % 1034,6 hPa 0,0 l/m 3,4 km/h (1 Bft) W-SW 242 0 min 0,000 mm 0 W/m 1,6 C 3,6 C 11,3 km/h (2 Bft) 97 %
28.01.2022 18:30 3,6 C 3,6 C 3,6 C 87 % 1034,6 hPa 0,0 l/m 2,1 km/h (1 Bft) W-SW 246 0 min 0,000 mm 0 W/m 1,6 C 3,6 C 9,7 km/h (2 Bft) 98 %
28.01.2022 18:40 3,6 C 3,6 C 3,6 C 87 % 1034,6 hPa 0,0 l/m 4,5 km/h (1 Bft) W-SW 244 0 min 0,000 mm 0 W/m 1,6 C 3,6 C 14,5 km/h (3 Bft) 97 %
28.01.2022 18:50 3,6 C 3,6 C 3,6 C 87 % 1034,6 hPa 0,0 l/m 2,4 km/h (1 Bft) W 268 0 min 0,000 mm 0 W/m 1,6 C 3,6 C 11,3 km/h (2 Bft) 97 %
28.01.2022 19:00 3,7 C 3,6 C 3,7 C 87 % 1034,6 hPa 0,0 l/m 2,7 km/h (1 Bft) W-SW 243 0 min 0,000 mm 0 W/m 1,7 C 3,7 C 14,5 km/h (3 Bft) 97 %
28.01.2022 19:10 3,6 C 3,6 C 3,7 C 87 % 1034,7 hPa 0,0 l/m 0,8 km/h (0 Bft) SW 214 0 min 0,000 mm 0 W/m 1,6 C 3,6 C 11,3 km/h (2 Bft) 98 %
28.01.2022 19:20 3,6 C 3,6 C 3,6 C 87 % 1034,9 hPa 0,0 l/m 5,9 km/h (2 Bft) W-SW 245 0 min 0,000 mm 0 W/m 1,6 C 3,6 C 17,7 km/h (3 Bft) 97 %
28.01.2022 19:30 3,5 C 3,5 C 3,6 C 87 % 1034,9 hPa 0,0 l/m 2,9 km/h (1 Bft) W-SW 248 0 min 0,000 mm 0 W/m 1,5 C 3,5 C 9,7 km/h (2 Bft) 97 %
28.01.2022 19:40 3,3 C 3,3 C 3,5 C 87 % 1034,9 hPa 0,0 l/m 4,2 km/h (1 Bft) W-SW 253 0 min 0,000 mm 0 W/m 1,3 C 3,3 C 11,3 km/h (2 Bft) 98 %
28.01.2022 19:50 3,2 C 3,2 C 3,3 C 88 % 1035,0 hPa 0,0 l/m 8,2 km/h (2 Bft) S-SW 205 0 min 0,000 mm 0 W/m 1,4 C 1,5 C 20,9 km/h (4 Bft) 89 %
28.01.2022 20:00 3,2 C 3,2 C 3,3 C 88 % 1035,2 hPa 0,0 l/m 6,3 km/h (2 Bft) SW 229 0 min 0,000 mm 0 W/m 1,4 C 3,2 C 16,1 km/h (3 Bft) 98 %
28.01.2022 20:10 3,1 C 3,1 C 3,2 C 89 % 1035,2 hPa 0,0 l/m 5,7 km/h (1 Bft) W-SW 255 0 min 0,000 mm 0 W/m 1,5 C 3,1 C 19,3 km/h (3 Bft) 97 %
28.01.2022 20:20 3,1 C 3,1 C 3,1 C 89 % 1035,2 hPa 0,0 l/m 6,9 km/h (2 Bft) SW 217 0 min 0,000 mm 0 W/m 1,5 C 2,6 C 16,1 km/h (3 Bft) 98 %
28.01.2022 20:30 3,1 C 3,1 C 3,1 C 90 % 1035,2 hPa 0,0 l/m 6,2 km/h (2 Bft) W-SW 239 0 min 0,000 mm 0 W/m 1,6 C 3,1 C 24,1 km/h (4 Bft) 97 %
28.01.2022 20:40 3,1 C 3,1 C 3,1 C 90 % 1035,2 hPa 0,0 l/m 7,1 km/h (2 Bft) W 262 0 min 0,000 mm 0 W/m 1,6 C 2,4 C 22,5 km/h (4 Bft) 89 %
28.01.2022 20:50 3,0 C 3,0 C 3,1 C 90 % 1035,2 hPa 0,0 l/m 3,3 km/h (1 Bft) W-SW 252 0 min 0,000 mm 0 W/m 1,5 C 3,0 C 14,5 km/h (3 Bft) 98 %
28.01.2022 21:00 2,9 C 2,9 C 3,0 C 90 % 1035,2 hPa 0,0 l/m 4,0 km/h (1 Bft) SW 229 0 min 0,000 mm 0 W/m 1,4 C 2,9 C 11,3 km/h (2 Bft) 97 %
28.01.2022 21:10 2,9 C 2,9 C 2,9 C 90 % 1035,2 hPa 0,0 l/m 1,6 km/h (1 Bft) SW 225 0 min 0,000 mm 0 W/m 1,4 C 2,9 C 6,4 km/h (2 Bft) 100 %
28.01.2022 21:20 2,9 C 2,8 C 2,9 C 91 % 1035,1 hPa 0,0 l/m 4,8 km/h (1 Bft) SW 225 0 min 0,000 mm 0 W/m 1,6 C 2,9 C 11,3 km/h (2 Bft) 100 %
28.01.2022 21:30 2,8 C 2,8 C 2,8 C 91 % 1035,0 hPa 0,0 l/m 6,4 km/h (2 Bft) S-SW 202 0 min 0,000 mm 0 W/m 1,5 C 2,8 C 12,9 km/h (3 Bft) 100 %
28.01.2022 21:40 2,7 C 2,7 C 2,8 C 91 % 1034,7 hPa 0,0 l/m 4,8 km/h (1 Bft) S-SW 202 0 min 0,000 mm 0 W/m 1,4 C 2,7 C 11,3 km/h (2 Bft) 90 %
28.01.2022 21:50 2,7 C 2,7 C 2,7 C 91 % 1034,7 hPa 0,0 l/m 4,8 km/h (1 Bft) S-SW 202 0 min 0,000 mm 0 W/m 1,4 C 2,7 C 14,5 km/h (3 Bft) 99 %
28.01.2022 22:00 2,6 C 2,6 C 2,7 C 91 % 1034,6 hPa 0,0 l/m 6,4 km/h (2 Bft) S-SW 202 0 min 0,000 mm 0 W/m 1,3 C 2,6 C 17,7 km/h (3 Bft) 100 %
28.01.2022 22:10 2,5 C 2,5 C 2,6 C 92 % 1034,5 hPa 0,0 l/m 6,4 km/h (2 Bft) S-SW 202 0 min 0,000 mm 0 W/m 1,3 C 2,5 C 17,7 km/h (3 Bft) 100 %
28.01.2022 22:20 2,4 C 2,4 C 2,5 C 92 % 1034,6 hPa 0,0 l/m 4,8 km/h (1 Bft) S-SW 202 0 min 0,000 mm 0 W/m 1,2 C 2,4 C 16,1 km/h (3 Bft) 100 %
28.01.2022 22:30 2,4 C 2,4 C 2,4 C 92 % 1034,7 hPa 0,0 l/m 4,8 km/h (1 Bft) SW 225 0 min 0,000 mm 0 W/m 1,2 C 2,4 C 16,1 km/h (3 Bft) 100 %
28.01.2022 22:40 2,4 C 2,4 C 2,4 C 92 % 1034,7 hPa 0,0 l/m 6,4 km/h (2 Bft) SW 225 0 min 0,000 mm 0 W/m 1,2 C 2,4 C 14,5 km/h (3 Bft) 100 %
28.01.2022 22:50 2,4 C 2,4 C 2,4 C 92 % 1034,7 hPa 0,0 l/m 4,8 km/h (1 Bft) SW 225 0 min 0,000 mm 0 W/m 1,2 C 2,4 C 12,9 km/h (3 Bft) 100 %
28.01.2022 23:00 2,4 C 2,4 C 2,4 C 92 % 1034,7 hPa 0,0 l/m 3,2 km/h (1 Bft) S-SW 202 0 min 0,000 mm 0 W/m 1,2 C 2,4 C 11,3 km/h (2 Bft) 100 %
28.01.2022 23:10 2,4 C 2,4 C 2,4 C 92 % 1034,7 hPa 0,0 l/m 4,8 km/h (1 Bft) SW 225 0 min 0,000 mm 0 W/m 1,2 C 2,4 C 17,7 km/h (3 Bft) 100 %
28.01.2022 23:20 2,4 C 2,4 C 2,5 C 92 % 1034,5 hPa 0,0 l/m 3,2 km/h (1 Bft) W-SW 247 0 min 0,000 mm 0 W/m 1,2 C 2,4 C 14,5 km/h (3 Bft) 90 %
28.01.2022 23:30 2,4 C 2,4 C 2,5 C 92 % 1034,2 hPa 0,0 l/m 6,4 km/h (2 Bft) SW 225 0 min 0,000 mm 0 W/m 1,2 C 2,4 C 16,1 km/h (3 Bft) 100 %
28.01.2022 23:40 2,4 C 2,4 C 2,5 C 92 % 1034,2 hPa 0,0 l/m 4,8 km/h (1 Bft) SW 225 0 min 0,000 mm 0 W/m 1,2 C 2,4 C 16,1 km/h (3 Bft) 100 %
28.01.2022 23:50 2,3 C 2,3 C 2,4 C 92 % 1033,9 hPa 0,0 l/m 6,4 km/h (2 Bft) S-SW 202 0 min 0,000 mm 0 W/m 1,1 C 2,3 C 19,3 km/h (3 Bft) 100 %
_ Min-Zeit 00:00 00:00 00:00 14:50 00:00 - 19:10 - - - - - 00:00 01:50 12:40 00:40
Minimum _ 0,9 C 0,9 C 0,9 C 82 % 1028,0 hPa - 0,8 km/h (0 Bft) - - - - - -0,2 C -6,1 C 6,4 km/h (2 Bft) 87 %
_ Max-Zeit 14:50 14:50 14:50 01:10 20:00 11:00 01:50 - - 12:39 14:00 14:20 13:50 14:40 02:40 08:10
Maximum _ 5,5 C 5,4 C 5,5 C 93 % 1035,2 hPa 0,1 l/m 16,1 km/h
W-SW (3 Bft)
- - 29 min 0,076 mm 325 W/m 2,8 C 5,4 C 33,8 km/h
W (5 Bft)
100 %
Durchschnitt _ 2,7 C 2,7 C 2,8 C 90 % 1032,7 hPa #0,2 l/m 7,5 km/h (2 Bft) W - #2:30 h #0,406 mm 115 W/m 1,3 C 1,1 C 20,9 km/h (4 Bft) 98 %
PRIVATE WETTERSTATION BILLIGHEIM-ALLFELD - www.neckar-odenwald-wetter.de - Holger Sonntag